Wind_Speed
14 13 13 13 13 14 15 14 14 14 14 15 15 17 17 16 16 15 14 13 12 11 10 10 9 8 8 7 6 6 5 5 4 4 3 3 2 2 2 2 2 2 2
14 14 13 14 14 15 15 15 16 15 14 15 16 17 17 16 16 16 15 14 13 12 12 11 11 10 9 8 7 6 6 5 5 5 4 3 3 2 2 2 2 2 2
15 15 15 15 15 15 15 15 15 15 15 16 16 17 17 17 16 16 16 16 15 14 13 13 12 11 10 8 8 7 6 5 6 5 4 4 4 3 3 3 3 2 2
15 15 15 15 15 15 15 13 13 14 15 16 16 16 17 17 17 16 16 15 15 15 14 13 12 11 10 10 9 9 8 7 7 6 6 5 5 4 3 3 3 3 2
15 15 15 15 15 15 14 14 13 13 15 16 16 16 17 18 18 17 16 16 15 15 14 14 13 12 11 11 10 10 10 9 8 7 7 6 6 5 5 4 3 3 3
16 15 15 15 15 15 15 14 12 13 15 16 16 16 17 18 18 18 17 16 16 16 16 15 14 13 13 12 12 12 11 10 10 9 8 8 7 6 6 5 4 4 4
17 17 17 16 16 15 15 14 13 13 14 16 16 16 17 17 18 18 18 17 16 16 16 16 15 14 14 13 13 13 12 12 11 10 10 9 8 8 7 6 5 5 5
17 17 17 16 16 15 15 14 13 13 14 15 16 16 17 17 18 18 18 17 16 17 17 16 16 15 14 14 14 14 13 13 13 12 11 11 10 9 9 8 7 7 7
17 17 16 16 16 16 16 16 15 14 14 15 16 16 17 18 18 19 19 18 17 17 16 16 16 16 15 15 15 15 14 14 13 13 13 12 11 10 10 9 9 8 8
16 17 16 16 16 16 16 16 16 15 15 15 16 17 18 18 18 18 18 19 19 18 18 18 17 17 17 16 16 16 15 15 14 14 14 14 13 12 11 11 10 10 9
16 16 16 16 16 16 16 17 17 17 16 16 16 17 18 18 19 18 18 19 19 18 19 19 19 19 19 18 17 17 17 16 16 15 15 15 14 14 13 12 12 11 11
16 16 15 15 15 16 16 17 17 17 17 17 17 17 17 18 18 19 20 20 20 19 19 20 21 21 20 20 19 18 18 18 17 17 16 16 16 15 14 14 13 13 13
17 16 16 15 15 16 17 18 17 17 17 17 17 18 18 18 19 19 19 20 20 20 20 20 22 22 22 21 20 20 19 19 19 18 18 18 17 16 16 15 15 15 15
17 16 15 15 15 15 16 16 15 16 17 18 19 19 19 19 19 19 19 20 20 20 20 21 22 22 22 22 22 21 21 21 20 20 20 19 19 18 18 17 17 17 17
17 16 15 15 15 15 15 15 15 16 17 17 19 20 19 19 19 19 19 19 19 19 20 20 20 22 22 22 22 22 22 22 22 22 21 21 20 20 20 19 19 20 20
17 17 16 15 15 15 14 15 15 15 16 16 17 18 18 18 19 19 19 19 19 19 20 21 21 21 21 22 23 24 23 23 23 22 22 22 22 22 22 23 23 23 23
18 18 17 16 15 15 14 14 15 15 16 17 17 18 17 17 18 18 18 18 19 19 19 20 20 21 22 22 24 24 24 24 24 24 24 24 24 24 24 25 25 25 26
18 18 17 16 15 15 15 14 14 15 16 16 17 18 18 18 18 18 18 18 19 19 19 19 20 21 22 22 23 23 23 24 24 24 24 25 25 26 26 26 26 27 28
19 19 18 17 16 16 15 15 15 15 15 16 16 17 18 18 18 18 18 18 18 19 20 20 21 21 21 21 22 22 23 22 23 24 24 25 26 27 28 28 29 30 30
20 20 19 18 17 17 16 16 15 15 15 15 16 17 17 18 18 18 18 19 18 19 19 19 19 20 21 21 21 21 22 22 23 24 26 27 28 29 30 31 31 32 33
21 21 20 19 18 17 17 16 15 15 15 16 16 16 17 18 18 17 18 18 18 18 18 19 19 20 21 21 21 22 23 24 25 26 27 28 29 30 30 31 32 33 34
21 21 20 19 19 18 17 16 16 16 16 16 16 17 17 17 17 17 17 17 17 18 19 19 20 20 20 21 22 23 24 25 26 26 27 28 29 29 30 30 32 34 35
19 19 19 19 18 18 18 18 18 17 17 17 17 17 17 17 17 17 18 18 19 19 19 19 20 21 22 23 24 24 25 26 27 27 29 29 29 30 30 31 33 34 36
19 19 19 18 18 18 18 18 18 18 18 17 17 17 18 18 19 19 19 20 20 20 20 21 21 22 23 24 25 25 26 27 28 29 30 30 31 32 33 34 35 36 37
19 19 19 19 19 18 18 18 18 18 18 18 18 19 19 20 20 20 20 20 21 22 22 23 23 24 25 26 26 27 27 28 27 29 30 31 32 33 34 34 35 36 37
19 19 19 19 19 19 18 18 18 19 19 19 20 20 20 20 21 21 21 22 23 23 24 25 25 25 26 27 28 28 28 28 29 30 30 31 31 32 33 34 35 37 37
Wind_Direction
260 264 268 272 275 274 272 271 267 260 251 240 230 228 227 228 227 228 228 227 226 226 222 219 217 216 218 220 226 225 223 220 224 225 225 229 229 233 245 253 259 263 269
259 263 266 271 275 276 275 272 267 258 246 236 229 227 228 228 227 225 225 228 226 225 224 222 220 217 221 224 227 227 224 222 216 213 218 222 224 226 246 249 251 251 252
255 261 267 270 272 275 278 274 265 256 244 237 235 232 230 230 226 225 224 225 225 224 225 224 223 221 224 225 227 227 226 223 214 213 221 224 227 233 242 242 241 245 253
256 261 265 268 269 273 273 270 264 252 240 232 233 234 229 228 228 227 227 224 224 224 224 224 225 226 227 228 231 231 229 226 221 219 224 228 229 233 234 235 238 245 254
257 261 264 263 267 271 271 268 262 250 240 233 232 231 226 227 228 228 228 225 225 224 224 226 226 227 230 232 232 230 226 227 225 222 225 227 227 230 232 238 242 249 257
255 257 261 263 267 271 273 270 265 255 242 235 232 230 228 229 229 229 228 227 227 225 226 227 228 229 232 235 235 231 227 228 226 227 229 230 231 232 236 242 246 253 258
254 256 261 264 265 269 271 267 262 254 247 236 231 231 231 231 229 228 228 229 229 228 227 229 230 233 236 236 235 233 231 230 231 232 231 231 233 235 239 242 245 253 256
254 257 261 263 262 263 264 262 260 258 253 242 235 234 233 233 231 229 228 229 231 232 231 232 232 234 236 236 234 232 232 234 236 236 234 234 237 240 242 246 250 254 257
255 256 258 259 259 259 259 258 256 257 253 244 240 239 238 236 232 229 229 230 233 235 236 237 237 237 237 238 236 234 235 236 238 239 238 237 239 242 246 249 253 257 259
253 255 257 260 260 258 256 256 255 256 252 247 247 243 238 234 232 232 233 234 234 236 239 242 242 240 239 238 236 235 236 238 239 240 241 240 241 244 248 250 254 256 262
251 254 256 259 260 257 258 259 257 255 252 248 246 239 236 234 234 236 238 236 235 240 243 244 242 241 241 240 239 238 239 241 243 244 244 244 246 245 247 249 253 257 262
249 253 255 258 259 257 258 260 262 256 249 245 241 237 236 236 236 240 240 238 238 242 243 244 243 241 242 240 238 240 241 243 245 246 245 247 247 249 249 251 254 258 262
249 251 253 256 257 256 257 258 257 253 245 242 239 237 238 237 238 243 242 241 241 243 242 243 243 242 240 239 239 241 242 245 246 246 247 247 249 250 251 254 257 260 262
248 250 252 254 257 256 255 253 252 249 244 240 237 237 238 238 240 243 244 243 243 244 243 244 243 241 240 239 240 242 245 247 247 246 247 247 250 251 254 258 259 261 262
246 250 251 253 258 257 254 249 249 247 244 241 238 236 236 237 239 241 243 244 243 243 243 244 242 240 240 239 242 243 245 246 248 248 248 249 251 254 256 259 261 263 264
246 248 249 252 257 257 256 249 246 246 242 240 237 234 232 235 238 241 244 245 244 244 244 244 243 242 241 240 242 245 246 247 248 249 249 250 253 256 258 260 262 264 266
245 247 247 251 254 253 255 253 249 247 244 241 238 235 234 236 238 241 244 245 244 245 245 244 244 245 244 242 242 246 249 251 252 252 251 252 256 258 261 262 263 263 266
243 245 245 248 249 250 252 253 252 250 244 242 241 238 237 238 240 242 245 246 246 247 247 248 247 246 246 244 244 248 250 252 252 252 253 256 259 260 262 263 264 266 267
241 244 244 245 248 249 250 249 251 250 247 244 242 241 242 243 243 245 245 245 249 249 249 249 249 249 247 248 249 249 251 252 254 255 257 259 260 261 262 264 265 267 269
238 242 242 245 249 249 249 249 249 246 244 243 243 244 244 244 245 247 247 249 251 253 252 249 248 247 248 248 250 252 253 255 256 258 260 261 263 264 264 266 268 269 270
239 241 242 245 248 248 247 247 246 245 244 244 243 244 245 245 245 246 248 249 250 251 251 249 248 249 251 252 253 254 256 257 257 261 263 264 264 266 267 267 268 269 271
239 241 241 241 243 244 246 245 245 244 244 246 246 247 248 247 245 247 249 249 250 252 250 248 249 250 253 254 256 259 260 261 262 264 265 266 268 269 269 270 270 270 271
238 238 237 237 239 242 244 245 246 246 246 247 247 247 248 247 247 248 249 250 252 252 251 251 253 254 256 256 258 261 263 264 265 266 268 268 269 270 270 272 272 273 275
235 234 235 236 238 240 243 246 246 247 248 249 249 250 251 252 251 251 251 252 253 252 254 256 257 257 258 260 262 264 266 267 269 269 270 273 275 274 274 273 273 274 276
234 234 237 236 238 241 245 246 246 248 251 251 252 255 257 257 258 258 257 257 255 253 254 256 258 259 261 263 265 268 269 270 271 273 275 277 278 276 275 276 277 277 278
234 236 238 239 242 245 248 249 249 249 251 252 254 257 259 258 258 260 260 261 259 257 258 260 261 262 263 264 267 269 270 272 273 274 276 278 277 278 280 280 281 281 282
Height
5873 5873 5873 5873 5873 5873 5872 5872 5872 5873 5873 5874 5875 5877 5878 5880 5881 5883 5884 5886 5888 5889 5890 5892 5893 5893 5894 5895 5896 5896 5896 5896 5897 5897 5897 5898 5898 5898 5898 5897 5897 5897 5897
5870 5870 5870 5870 5870 5869 5869 5868 5868 5869 5870 5871 5872 5873 5875 5877 5879 5880 5882 5884 5885 5887 5888 5890 5891 5892 5893 5894 5895 5895 5895 5895 5896 5897 5897 5897 5898 5898 5897 5898 5897 5897 5897
5866 5867 5867 5867 5866 5866 5865 5864 5863 5864 5865 5867 5869 5871 5873 5874 5876 5878 5880 5881 5883 5885 5886 5887 5889 5890 5892 5893 5893 5894 5895 5895 5896 5896 5897 5897 5897 5897 5897 5897 5897 5897 5897
5863 5863 5863 5863 5863 5863 5861 5861 5860 5861 5862 5864 5866 5867 5869 5872 5874 5875 5877 5879 5880 5882 5884 5885 5887 5888 5889 5891 5892 5893 5893 5894 5895 5896 5896 5896 5897 5897 5897 5897 5897 5897 5897
5859 5860 5860 5860 5860 5859 5858 5858 5857 5858 5859 5860 5863 5864 5866 5868 5871 5873 5875 5877 5878 5880 5882 5883 5885 5886 5888 5889 5890 5891 5892 5893 5894 5895 5895 5895 5896 5896 5896 5897 5897 5897 5897
5856 5856 5856 5856 5856 5856 5855 5855 5855 5855 5856 5857 5859 5862 5864 5865 5867 5870 5872 5874 5876 5878 5879 5881 5883 5884 5885 5887 5888 5889 5890 5891 5892 5893 5894 5894 5895 5895 5895 5896 5896 5896 5896
5852 5852 5852 5853 5853 5853 5853 5852 5852 5852 5853 5854 5856 5859 5861 5862 5864 5867 5869 5871 5873 5875 5876 5878 5880 5881 5883 5884 5886 5887 5888 5889 5891 5891 5892 5893 5893 5894 5894 5895 5895 5895 5895
5848 5848 5849 5849 5849 5849 5850 5849 5850 5850 5850 5852 5854 5856 5858 5859 5861 5863 5866 5868 5870 5871 5873 5875 5877 5879 5880 5881 5883 5884 5885 5887 5888 5889 5890 5891 5891 5892 5893 5893 5893 5894 5894
5844 5845 5845 5845 5845 5846 5846 5846 5847 5847 5848 5849 5851 5852 5854 5856 5858 5860 5862 5864 5867 5868 5870 5872 5874 5876 5877 5879 5880 5881 5883 5884 5885 5886 5887 5888 5889 5890 5890 5891 5891 5892 5892
5840 5841 5841 5841 5841 5842 5842 5843 5843 5844 5845 5846 5848 5849 5851 5853 5855 5857 5859 5861 5863 5865 5867 5869 5870 5872 5874 5876 5877 5879 5880 5881 5882 5884 5885 5885 5886 5887 5888 5888 5889 5889 5890
5836 5837 5837 5837 5837 5838 5838 5839 5839 5840 5841 5842 5844 5845 5847 5850 5852 5854 5856 5858 5859 5861 5863 5864 5866 5868 5870 5872 5874 5875 5877 5878 5879 5880 5881 5882 5883 5884 5885 5886 5886 5886 5886
5832 5833 5833 5833 5833 5834 5834 5835 5835 5836 5837 5838 5840 5842 5844 5846 5848 5850 5852 5854 5856 5857 5859 5860 5862 5864 5866 5868 5870 5872 5873 5874 5876 5877 5878 5879 5880 5881 5881 5882 5883 5883 5883
5828 5829 5829 5829 5830 5830 5830 5831 5831 5832 5833 5834 5836 5838 5840 5842 5844 5846 5848 5849 5851 5853 5854 5856 5857 5859 5861 5863 5866 5867 5869 5870 5872 5873 5874 5875 5876 5877 5878 5878 5879 5879 5879
5824 5825 5825 5825 5826 5826 5826 5826 5827 5828 5829 5830 5832 5835 5837 5839 5841 5843 5844 5845 5847 5848 5850 5851 5853 5855 5857 5859 5861 5863 5864 5866 5867 5869 5870 5871 5872 5873 5874 5874 5875 5875 5875
5820 5821 5822 5822 5822 5822 5822 5822 5824 5824 5825 5827 5828 5830 5833 5835 5837 5839 5840 5842 5842 5844 5845 5847 5848 5850 5852 5854 5856 5858 5860 5861 5862 5864 5865 5866 5867 5868 5869 5870 5870 5870 5870
5815 5816 5817 5818 5818 5818 5818 5819 5820 5821 5822 5823 5825 5826 5828 5831 5833 5835 5837 5838 5839 5840 5841 5843 5844 5846 5848 5850 5852 5854 5855 5856 5857 5859 5860 5861 5862 5863 5863 5864 5864 5865 5865
5811 5812 5813 5814 5815 5815 5815 5815 5816 5817 5818 5820 5821 5823 5825 5827 5829 5831 5832 5833 5834 5836 5837 5838 5840 5841 5843 5845 5847 5849 5850 5851 5852 5853 5855 5856 5857 5857 5857 5858 5858 5858 5858
5807 5808 5809 5810 5811 5812 5812 5813 5813 5814 5815 5816 5818 5820 5822 5824 5826 5827 5828 5829 5830 5831 5833 5834 5835 5837 5839 5841 5842 5843 5844 5846 5847 5848 5849 5850 5850 5851 5851 5851 5851 5851 5851
5802 5804 5805 5807 5807 5808 5809 5810 5810 5811 5812 5813 5815 5817 5819 5820 5822 5823 5824 5825 5826 5827 5828 5830 5831 5833 5834 5836 5837 5838 5839 5840 5841 5842 5843 5843 5844 5844 5844 5844 5844 5844 5843
5798 5799 5801 5802 5804 5805 5806 5807 5807 5808 5809 5810 5812 5813 5815 5816 5818 5819 5820 5821 5822 5823 5824 5825 5826 5828 5829 5831 5832 5833 5834 5835 5835 5836 5836 5836 5837 5837 5837 5837 5836 5836 5835
5793 5795 5797 5798 5800 5801 5802 5803 5804 5805 5806 5807 5808 5810 5811 5812 5813 5814 5816 5817 5818 5819 5820 5821 5822 5823 5825 5826 5827 5828 5828 5829 5829 5829 5829 5829 5829 5829 5829 5828 5828 5827 5826
5788 5790 5792 5794 5795 5797 5798 5799 5800 5801 5802 5803 5805 5806 5807 5808 5809 5810 5811 5812 5813 5814 5815 5816 5817 5818 5820 5821 5821 5822 5822 5822 5822 5822 5822 5822 5821 5821 5820 5820 5819 5818 5817
5783 5785 5787 5789 5790 5792 5794 5795 5796 5797 5799 5800 5800 5801 5803 5803 5804 5805 5807 5808 5809 5810 5810 5811 5812 5813 5814 5815 5815 5815 5815 5815 5815 5815 5814 5814 5813 5812 5812 5811 5810 5808 5807
5778 5780 5782 5784 5786 5788 5789 5790 5792 5793 5794 5795 5796 5797 5798 5799 5800 5800 5801 5802 5803 5804 5805 5806 5806 5807 5807 5808 5808 5808 5808 5808 5807 5807 5807 5806 5805 5804 5803 5801 5800 5798 5797
5774 5775 5777 5779 5781 5783 5784 5786 5787 5788 5789 5790 5791 5792 5792 5793 5794 5795 5795 5796 5797 5798 5799 5799 5799 5800 5800 5801 5801 5801 5800 5800 5799 5799 5799 5797 5796 5794 5793 5791 5789 5788 5786
5769 5771 5773 5774 5776 5778 5779 5781 5782 5783 5784 5785 5786 5786 5787 5787 5788 5789 5789 5790 5791 5791 5792 5792 5793 5793 5793 5793 5793 5793 5793 5792 5792 5791 5790 5788 5787 5785 5784 5782 5780 5778 5776